This demonstration page uses our WeatherBlox Daily Observations layout. Learn more.

Left ArrowRight Arrow

30.21309, -93.2044

Hourly Observations for July 22, 2022

Temp ( °F °C ) Dew Point ( °F °C ) Humidity (%) Winds ( mph kmh ) Pressure ( in mb ) Visibility ( mi km ) Precip ( " mm )
12:15 am 00:15 Clear 79 26 76 24.3 90 90 SSE 3 6 29.98 1015 10 16 0.00 0.00
12:35 am 00:35 Clear 79 26.1 76 24.3 90 90 SSE 6 9 29.98 1015 10 16 0.00 0.00
12:55 am 00:55 Clear 78 25.6 75 24 91 91 SSE 5 7 29.98 1015 10 16 0.00 0.00
1:15 am 01:15 Clear 78 25.7 76 24.3 92 92 SSE 6 9 29.98 1015 10 16 0.00 0.00
1:35 am 01:35 Clear 78 25.8 76 24.4 92 92 S 5 7 29.98 1015 10 16 0.00 0.00
1:55 am 01:55 Clear 80 26.5 76 24.5 89 89 SSW 3 6 29.98 1015 10 16 0.00 0.00
2:15 am 02:15 Clear 81 27 76 24.5 86 86 SSW 3 6 29.98 1015 10 16 0.00 0.00
2:35 am 02:35 Clear 78 25.4 75 24 92 92 S 3 6 29.98 1015 10 16 0.00 0.00
2:55 am 02:55 Clear 77 25.1 75 24 94 94 SSE 3 6 29.99 1016 7 11 0.00 0.00
3:15 am 03:15 Clear 78 25.6 76 24.4 93 93 Calm 29.99 1016 7 11 0.00 0.00
3:35 am 03:35 Clear 78 25.4 76 24.2 93 93 SSW 3 6 29.98 1015 10 16 0.00 0.00
3:55 am 03:55 Partly Cloudy 78 25.6 76 24.2 92 92 S 5 7 29.98 1015 10 16 0.00 0.00
4:15 am 04:15 Partly Cloudy 78 25.5 75 24.1 92 92 Calm 29.98 1015 10 16 0.00 0.00
4:35 am 04:35 Clear 80 26.8 76 24.6 88 88 WSW 3 6 29.98 1015 10 16 0.00 0.00
4:55 am 04:55 Clear 81 27.4 76 24.6 85 85 WSW 3 6 29.98 1015 10 16 0.00 0.00
5:15 am 05:15 Clear 82 27.7 76 24.6 83 83 W 5 7 29.98 1015 10 16 0.00 0.00
5:35 am 05:35 Clear 81 27.1 76 24.3 85 85 Calm 29.99 1016 10 16 0.00 0.00
6:00 am 06:00 Partly Cloudy 79 26 75 24 89 89 Calm 29.99 1016 10 16 0.00 0.00
6:45 am 06:45 Partly Cloudy 79 26 75 24 89 89 Calm 30.01 1016 7 11 0.00 0.00
7:47 am 07:47 Partly Cloudy with Thunderstorms 81 27 77 25 89 89 E 6 9 30.05 1018 6 10 0.00 0.00
8:50 am 08:50 Mostly Cloudy with Thunderstorms 75 24 72 22 89 89 NNW 12 19 30.06 1018 5 8 0.00 0.00
9:47 am 09:47 Mostly Cloudy with Thunderstorms 75 24 72 22 89 89 N 6 9 30.06 1018 6 10 0.00 0.00
10:17 am 10:17 Windy with Storms Likely 73 23 70 21 89 89 ESE 21 33 30.10 1019 7 11 0.00 0.00
10:47 am 10:47 Mostly Cloudy with Thunderstorms 72 22 70 21 94 94 Calm 30.09 1019 7 11 0.00 0.00
11:47 am 11:47 Mostly Cloudy with Light Rain 73 23 72 22 94 94 SW 5 7 30.08 1019 10 16 0.00 0.00
12:45 pm 12:45 Mostly Cloudy 79 26 70 21 74 74 S 6 9 30.07 1018 10 16 0.00 0.00
1:49 pm 13:49 Mostly Cloudy 82 28 72 22 70 70 Calm 30.06 1018 10 16 0.00 0.00
2:52 pm 14:52 Mostly Sunny 82 28 70 21 66 66 VRB 5 7 30.04 1017 10 16 0.00 0.00
3:45 pm 15:45 Mostly Sunny 82 28 72 22 70 70 NE 6 9 30.05 1018 10 16 0.00 0.00
4:45 pm 16:45 Mostly Sunny 82 28 72 22 70 70 SSE 6 9 30.03 1017 10 16 0.00 0.00
5:50 pm 17:50 Mostly Sunny 82 28 72 22 70 70 ESE 6 9 30.02 1017 10 16 0.00 0.00
6:50 pm 18:50 Mostly Sunny 82 28 72 22 70 70 Calm 30.02 1017 10 16 0.00 0.00
7:51 pm 19:51 Mostly Sunny 81 27 73 23 79 79 Calm 30.03 1017 10 16 0.00 0.00
8:50 pm 20:50 Mostly Clear 79 26 73 23 84 84 Calm 30.03 1017 10 16 0.00 0.00
9:45 pm 21:45 Mostly Clear 77 25 73 23 89 89 Calm 30.03 1017 10 16 0.00 0.00
10:15 pm 22:15 Clear 76 24.7 73 22.7 89 89 E 5 7 30.04 1017 10 16 0.00 0.00
10:35 pm 22:35 Clear 76 24.5 73 22.7 90 90 E 5 7 30.04 1017 10 16 0.00 0.00
10:55 pm 22:55 Clear 76 24.4 73 22.7 90 90 E 3 6 30.04 1017 10 16 0.00 0.00
11:15 pm 23:15 Clear 76 24.3 73 22.7 91 91 E 5 7 30.04 1017 10 16 0.00 0.00
11:35 pm 23:35 Clear 77 24.8 73 23 90 90 ENE 5 7 30.04 1017 10 16 0.00 0.00
11:55 pm 23:55 Clear 77 25.2 73 22.9 87 87 Calm 30.04 1017 10 16 0.00 0.00

Powered by AerisWeather